When you browse on this site, cookies collect data to enhance your experience and personalize the content and advertising you see.
Visit our Privacy Policy to learn more. By continuing to use the site, you agree to this use of cookies and data.
  • In Portugal
  • List of Countries
  • For 7 days
  • Water Temperature
  • Weather Map
  • Weather Widgets
  • user-avatar
    Login

    Hourly Weather Kina

    Today, 25 May, Monday

    Time Temperature Precipitation Wind Pressure Humidity
    00:00 +10°C° 0 mm 1 mps 625 mmHg 93%
    01:00 +10°C° 0.1 mm 1 mps 625 mmHg 92%
    02:00 +9°C° 0.1 mm 0 mps 625 mmHg 91%
    03:00 +9°C° 0 mm 0 mps 624 mmHg 91%
    04:00 +11°C° 0.1 mm 1 mps 625 mmHg 89%
    05:00 +12°C° 0.1 mm 1 mps 626 mmHg 86%
    06:00 +13°C° 0.1 mm 1 mps 626 mmHg 84%
    07:00 +15°C° 0.1 mm 2 mps 627 mmHg 80%
    08:00 +16°C° 0.1 mm 2 mps 627 mmHg 76%
    09:00 +17°C° 0.1 mm 3 mps 627 mmHg 73%
    10:00 +18°C° 0.1 mm 3 mps 627 mmHg 69%
    11:00 +19°C° 0.1 mm 4 mps 627 mmHg 65%
    12:00 +20°C° 0.1 mm 4 mps 627 mmHg 62%
    13:00 +19°C° 0.2 mm 4 mps 626 mmHg 65%
    14:00 +19°C° 0.2 mm 3 mps 625 mmHg 68%
    15:00 +18°C° 0.2 mm 3 mps 624 mmHg 71%
    16:00 +17°C° 0.7 mm 3 mps 624 mmHg 74%
    17:00 +16°C° 0.7 mm 2 mps 623 mmHg 77%
    18:00 +15°C° 0.7 mm 2 mps 622 mmHg 81%
    19:00 +14°C° 0.3 mm 2 mps 621 mmHg 84%
    20:00 +13°C° 0.3 mm 2 mps 621 mmHg 88%
    21:00 +12°C° 0.3 mm 2 mps 620 mmHg 91%
    22:00 +10°C° 0 mm 2 mps 620 mmHg 92%
    23:00 +10°C° 0 mm 2 mps 620 mmHg 92%

    Tomorrow, 26 May, Tuesday

    Time Temperature Precipitation Wind Pressure Humidity
    00:00 +10°C° 0 mm 3 mps 620 mmHg 93%
    01:00 +9°C° 0 mm 3 mps 620 mmHg 91%
    02:00 +9°C° 0 mm 3 mps 620 mmHg 90%
    03:00 +8°C° 0 mm 3 mps 620 mmHg 89%
    04:00 +9°C° 0 mm 2 mps 620 mmHg 85%
    05:00 +9°C° 0 mm 2 mps 621 mmHg 81%
    06:00 +10°C° 0 mm 2 mps 621 mmHg 76%
    07:00 +13°C° 0 mm 2 mps 622 mmHg 68%
    08:00 +15°C° 0 mm 2 mps 623 mmHg 59%
    09:00 +17°C° 0 mm 3 mps 624 mmHg 50%
    10:00 +18°C° 0 mm 3 mps 625 mmHg 47%
    11:00 +19°C° 0 mm 3 mps 625 mmHg 44%
    12:00 +20°C° 0 mm 3 mps 626 mmHg 40%
    13:00 +20°C° 0 mm 3 mps 626 mmHg 42%
    14:00 +20°C° 0 mm 3 mps 626 mmHg 43%
    15:00 +20°C° 0 mm 3 mps 626 mmHg 44%
    16:00 +19°C° 0 mm 3 mps 626 mmHg 50%
    17:00 +18°C° 0 mm 2 mps 626 mmHg 56%
    18:00 +17°C° 0 mm 2 mps 626 mmHg 62%
    19:00 +15°C° 0 mm 2 mps 625 mmHg 64%
    20:00 +13°C° 0 mm 2 mps 625 mmHg 66%
    21:00 +10°C° 0 mm 2 mps 624 mmHg 68%
    22:00 +10°C° 0 mm 1 mps 624 mmHg 64%
    23:00 +10°C° 0 mm 1 mps 624 mmHg 60%

    Day after tomorrow, 27 May, Wednesday

    Time Temperature Precipitation Wind Pressure Humidity
    00:00 +10°C° 0 mm 1 mps 624 mmHg 56%
    01:00 +9°C° 0 mm 1 mps 624 mmHg 56%
    02:00 +9°C° 0 mm 1 mps 624 mmHg 56%
    03:00 +9°C° 0 mm 1 mps 624 mmHg 57%
    04:00 +11°C° 0 mm 1 mps 625 mmHg 55%
    05:00 +13°C° 0 mm 1 mps 626 mmHg 53%
    06:00 +14°C° 0 mm 1 mps 627 mmHg 51%
    07:00 +16°C° 0 mm 2 mps 627 mmHg 51%
    08:00 +17°C° 0 mm 2 mps 628 mmHg 50%
    09:00 +19°C° 0 mm 2 mps 628 mmHg 50%
    10:00 +20°C° 0 mm 2 mps 628 mmHg 50%
    11:00 +20°C° 0 mm 2 mps 628 mmHg 50%
    12:00 +21°C° 0 mm 2 mps 628 mmHg 50%
    13:00 +21°C° 0 mm 2 mps 628 mmHg 51%
    14:00 +21°C° 0 mm 2 mps 628 mmHg 52%
    15:00 +21°C° 0 mm 2 mps 627 mmHg 52%
    16:00 +21°C° 0 mm 2 mps 627 mmHg 58%
    17:00 +20°C° 0 mm 2 mps 627 mmHg 63%
    18:00 +20°C° 0 mm 1 mps 626 mmHg 69%
    19:00 +18°C° 0 mm 1 mps 626 mmHg 70%
    20:00 +15°C° 0 mm 1 mps 625 mmHg 70%
    21:00 +13°C° 0 mm 1 mps 624 mmHg 71%
    22:00 +13°C° 0 mm 1 mps 624 mmHg 67%
    23:00 +12°C° 0 mm 1 mps 624 mmHg 64%

    28 May, Thursday

    Time Temperature Precipitation Wind Pressure Humidity
    00:00 +12°C° 0 mm 1 mps 623 mmHg 60%
    01:00 +12°C° 0 mm 1 mps 623 mmHg 58%
    02:00 +12°C° 0 mm 1 mps 623 mmHg 55%
    03:00 +12°C° 0 mm 1 mps 622 mmHg 53%
    04:00 +14°C° 0 mm 1 mps 623 mmHg 52%
    05:00 +16°C° 0 mm 1 mps 624 mmHg 51%
    06:00 +19°C° 0 mm 1 mps 625 mmHg 50%
    07:00 +20°C° 0 mm 1 mps 625 mmHg 46%
    08:00 +21°C° 0 mm 2 mps 625 mmHg 41%
    09:00 +24°C° 0 mm 2 mps 626 mmHg 36%
    10:00 +24°C° 0 mm 2 mps 626 mmHg 35%
    11:00 +25°C° 0 mm 2 mps 626 mmHg 34%
    12:00 +25°C° 0 mm 2 mps 626 mmHg 33%
    13:00 +25°C° 0 mm 2 mps 625 mmHg 34%
    14:00 +25°C° 0 mm 2 mps 625 mmHg 34%
    15:00 +25°C° 0 mm 2 mps 625 mmHg 34%
    16:00 +24°C° 0 mm 2 mps 624 mmHg 41%
    17:00 +23°C° 0 mm 2 mps 623 mmHg 49%
    18:00 +22°C° 0 mm 1 mps 623 mmHg 56%
    19:00 +20°C° 0 mm 1 mps 622 mmHg 56%
    20:00 +18°C° 0 mm 1 mps 622 mmHg 56%
    21:00 +16°C° 0 mm 1 mps 621 mmHg 56%
    22:00 +15°C° 0 mm 1 mps 621 mmHg 51%
    23:00 +15°C° 0 mm 1 mps 621 mmHg 45%

    29 May, Friday

    Time Temperature Precipitation Wind Pressure Humidity
    00:00 +15°C° 0 mm 1 mps 620 mmHg 40%
    01:00 +15°C° 0 mm 1 mps 620 mmHg 41%
    02:00 +15°C° 0 mm 1 mps 620 mmHg 42%
    03:00 +15°C° 0 mm 1 mps 620 mmHg 43%
    04:00 +16°C° 0 mm 1 mps 620 mmHg 45%
    05:00 +19°C° 0 mm 1 mps 621 mmHg 48%
    06:00 +20°C° 0 mm 1 mps 621 mmHg 50%
    07:00 +22°C° 0 mm 1 mps 622 mmHg 46%
    08:00 +24°C° 0 mm 2 mps 622 mmHg 41%
    09:00 +25°C° 0 mm 2 mps 622 mmHg 37%
    10:00 +26°C° 0 mm 3 mps 622 mmHg 36%
    11:00 +26°C° 0 mm 3 mps 622 mmHg 35%
    12:00 +27°C° 0 mm 4 mps 622 mmHg 34%
    13:00 +27°C° 0 mm 3 mps 622 mmHg 34%
    14:00 +27°C° 0 mm 3 mps 621 mmHg 34%
    15:00 +26°C° 0 mm 3 mps 621 mmHg 34%
    16:00 +25°C° 0.2 mm 3 mps 620 mmHg 45%
    17:00 +23°C° 0.2 mm 2 mps 620 mmHg 56%
    18:00 +20°C° 0.2 mm 2 mps 619 mmHg 67%
    19:00 +18°C° 1.4 mm 3 mps 619 mmHg 72%
    20:00 +16°C° 1.4 mm 3 mps 619 mmHg 78%
    21:00 +14°C° 1.4 mm 4 mps 619 mmHg 84%
    22:00 +13°C° 0.1 mm 3 mps 618 mmHg 81%
    23:00 +14°C° 0.1 mm 2 mps 618 mmHg 79%

    30 May, Saturday

    Time Temperature Precipitation Wind Pressure Humidity
    00:00 +14°C° 0.1 mm 1 mps 618 mmHg 76%
    01:00 +14°C° 0 mm 1 mps 618 mmHg 75%
    02:00 +14°C° 0 mm 1 mps 617 mmHg 74%
    03:00 +14°C° 0 mm 1 mps 617 mmHg 72%
    04:00 +15°C° 0 mm 1 mps 618 mmHg 70%
    05:00 +18°C° 0 mm 1 mps 619 mmHg 67%
    06:00 +19°C° 0 mm 1 mps 620 mmHg 65%
    07:00 +20°C° 0 mm 2 mps 621 mmHg 56%
    08:00 +21°C° 0 mm 3 mps 622 mmHg 47%
    09:00 +23°C° 0 mm 4 mps 622 mmHg 38%
    10:00 +23°C° 0.1 mm 4 mps 623 mmHg 40%
    11:00 +23°C° 0.1 mm 4 mps 623 mmHg 41%
    12:00 +23°C° 0.1 mm 4 mps 623 mmHg 42%
    13:00 +22°C° 0.2 mm 4 mps 623 mmHg 44%
    14:00 +22°C° 0.2 mm 4 mps 623 mmHg 47%
    15:00 +21°C° 0.2 mm 4 mps 623 mmHg 49%
    16:00 +20°C° 0.3 mm 3 mps 623 mmHg 56%
    17:00 +19°C° 0.3 mm 2 mps 622 mmHg 64%
    18:00 +18°C° 0.3 mm 2 mps 622 mmHg 72%
    19:00 +16°C° 0.6 mm 2 mps 622 mmHg 78%
    20:00 +15°C° 0.6 mm 1 mps 622 mmHg 84%
    21:00 +13°C° 0.6 mm 1 mps 622 mmHg 90%
    22:00 +13°C° 0.4 mm 1 mps 622 mmHg 90%
    23:00 +13°C° 0.4 mm 1 mps 622 mmHg 90%
    Show more